TITAN 3C TRANSTAGE DEB, 43449

Orbit data source: Space-Track

TITAN 3C TRANSTAGE DEB, 43449 is space debris originally from a launch on Sun, 09 Feb 1969 UTC launched from the Air Force Eastern Test Range (AFETR). Debris objects in space refer to the collection of defunct objects orbiting the Earth. Examples of debris include non-operational satellites, rocket bodies, and fragments generated from explosions, collisions, or faulty payload assembly.

Not visible in the next 10 days
TITAN 3C TRANSTAGE DEB details
Identifier
43449, 1969-013J
Orbit
Active
Last TLE update19 hours ago
Origin
Flag of USUSAF SMC (US)
ManufacturerMartin Marietta
MissionSpacecraft
Bus & MotorUnknown
MassUnknown
Launch date (UTC)
1969-02-09 (56 years ago)
Launch vehicleUnknown
Launch site
Air Force Eastern Test Range (AFETR)
Object type
Payload
Rocket body
Debris
Shape & HBRUnknown
Radar Cross SectionRCS unknown

Expand to show TLE details & history

TLE from 19 hours ago
0 TITAN 3C TRANSTAGE DEB
1 43449U 69013J   24339.40556139 -.00000158  00000-0  00000+0 0  9991
2 43449   0.2984 342.0604 0128388 156.9663 221.9731  0.96590781 23436
Epoch: 2024-12-04T09:44Z
Definitive object data (Epoch: 2024-12-04T09:44:00.504Z)
Latitude0.10315°
Longitude140.29646°
Altitude37,263.901 km
Speed3.008 km/s
True Right ascension23h 59m 59s
True Declination0° 06' 11"
Sunlit
Object was in daylight at TLE epoch
Visualization TLE readout
Latitude-0.29977°
Longitude53.1071°
Altitude37,231.325 km
Speed3.01 km/s
Apparent Right ascension17h 50m 54s
Apparent Declination-5° 17' 15"
Sunlit
Object is in daylight
Visualization observer readout
Local Sidereal Time02:22:42
Azimuth292.313° WNW
Elevation-31.924°
Doppler factor1
Orbital elements
Apogee altitude37,407.219 km
Perigee altitude36,297.168 km
Semi-major axis43,230.331 km
Eccentricity0.0128388
Inclination0.2984°
RAAN342.0604°
Arg. of periapsis156.9663°
True anomaly221.00083°
Mean anomaly221.9731°
Eccentric anomaly221.48581°
Mean motion0.24147 °/min
BSTARUnknown
Orbital period1490.88 mins
Loading maneuver chart data...

TITAN 3C TRANSTAGE DEB Visibility forecast

Observer location: undefined°, undefined

TITAN 3C TRANSTAGE DEB is not visible in the next 10 days
Span
Click to sort rows by Start time (UTC) header in descending order
Start Az.
Max El. time (UTC)
Max El. Az.
Max El.
End time (UTC)
End Az.
|